Location: Newark
(11.6000°N, 43.1667°E)
Time: 13:16:40
(UTC+00:00)

LightSail 2 - Pass Details

Date: 18 September 2019
Orbit: 707 x 722 km, 24.0° (Epoch: 16 October)

Event Time Altitude Azimuth Distance (km) Brightness Sun altitude
Exits shadow 02:26:11 10° 272° (W) 2,169 7.0 -8.3°
Reaches altitude 10° 02:26:13 10° 272° (W) 2,159 7.0 -8.3°
Maximum altitude 02:31:01 42° 342° (NNW) 1,001 5.8 -7.1°
Drops below altitude 10° 02:35:51 10° 53° (NE) 2,166 8.6 -5.9°
Sets 02:38:25 0° 60° (ENE) 3,087 9.8 -5.3°
